• In Hungary
  • List of Countries
  • For 7 days
  • Water Temperature
  • Satellite Maps
  • Weather Map
  • News
  • Weather Widgets
  • user-avatar
    Login

    Hourly Weather Kano

    Today, 25 September, Tuesday

    Time Temperature Precipitation Wind Pressure Humidity
    00:00 +29°C° 0 mm 4 mps 718 mmHg 57%
    01:00 +27°C° 0 mm 4 mps 718 mmHg 65%
    02:00 +27°C° 0 mm 3 mps 718 mmHg 66%
    03:00 +26°C° 0 mm 3 mps 717 mmHg 67%
    04:00 +26°C° 0 mm 2 mps 717 mmHg 69%
    05:00 +26°C° 0 mm 2 mps 717 mmHg 68%
    06:00 +26°C° 0 mm 2 mps 718 mmHg 68%
    07:00 +26°C° 0 mm 1 mps 718 mmHg 68%
    08:00 +28°C° 0 mm 1 mps 718 mmHg 61%
    09:00 +30°C° 0 mm 1 mps 719 mmHg 54%
    10:00 +33°C° 0 mm 1 mps 719 mmHg 46%
    11:00 +35°C° 0 mm 2 mps 719 mmHg 41%
    12:00 +37°C° 0 mm 2 mps 718 mmHg 37%
    13:00 +38°C° 0 mm 3 mps 718 mmHg 32%
    14:00 +40°C° 0 mm 4 mps 717 mmHg 31%
    15:00 +40°C° 0 mm 4 mps 716 mmHg 30%
    16:00 +40°C° 0 mm 4 mps 715 mmHg 30%
    17:00 +37°C° 0 mm 3 mps 716 mmHg 32%
    18:00 +36°C° 0 mm 3 mps 716 mmHg 35%
    19:00 +35°C° 0 mm 2 mps 716 mmHg 38%
    20:00 +34°C° 0 mm 2 mps 716 mmHg 39%
    21:00 +32°C° 0 mm 2 mps 717 mmHg 41%
    22:00 +33°C° 0 mm 3 mps 717 mmHg 42%
    23:00 +31°C° 0.2 mm 3 mps 717 mmHg 46%

    Tomorrow, 26 September, Wednesday

    Time Temperature Precipitation Wind Pressure Humidity
    00:00 +30°C° 0.2 mm 3 mps 717 mmHg 51%
    01:00 +29°C° 0.2 mm 3 mps 717 mmHg 55%
    02:00 +29°C° 0 mm 3 mps 716 mmHg 58%
    03:00 +28°C° 0 mm 4 mps 716 mmHg 62%
    04:00 +28°C° 0 mm 4 mps 716 mmHg 66%
    05:00 +27°C° 0 mm 4 mps 716 mmHg 69%
    06:00 +27°C° 0 mm 4 mps 716 mmHg 72%
    07:00 +27°C° 0 mm 4 mps 717 mmHg 75%
    08:00 +29°C° 0 mm 4 mps 717 mmHg 68%
    09:00 +32°C° 0 mm 4 mps 718 mmHg 60%
    10:00 +34°C° 0 mm 4 mps 718 mmHg 52%
    11:00 +36°C° 0 mm 3 mps 718 mmHg 46%
    12:00 +37°C° 0 mm 2 mps 717 mmHg 40%
    13:00 +39°C° 0 mm 1 mps 717 mmHg 34%
    14:00 +39°C° 0 mm 1 mps 716 mmHg 31%
    15:00 +40°C° 0 mm 1 mps 715 mmHg 28%
    16:00 +40°C° 0 mm 1 mps 715 mmHg 25%
    17:00 +37°C° 0 mm 1 mps 715 mmHg 28%
    18:00 +37°C° 0 mm 2 mps 715 mmHg 31%
    19:00 +35°C° 0 mm 2 mps 715 mmHg 33%
    20:00 +35°C° 0 mm 2 mps 715 mmHg 38%
    21:00 +34°C° 0 mm 3 mps 716 mmHg 43%
    22:00 +33°C° 0 mm 4 mps 716 mmHg 47%
    23:00 +32°C° 0 mm 5 mps 716 mmHg 53%

    Day after tomorrow, 27 September, Thursday

    Time Temperature Precipitation Wind Pressure Humidity
    00:00 +30°C° 0 mm 5 mps 716 mmHg 58%
    01:00 +29°C° 0 mm 5 mps 716 mmHg 63%
    02:00 +29°C° 0 mm 5 mps 716 mmHg 66%
    03:00 +28°C° 0 mm 5 mps 716 mmHg 68%
    04:00 +28°C° 0 mm 5 mps 716 mmHg 71%
    05:00 +28°C° 0 mm 5 mps 716 mmHg 73%
    06:00 +27°C° 0 mm 5 mps 716 mmHg 75%
    07:00 +27°C° 0 mm 5 mps 717 mmHg 77%
    08:00 +29°C° 0 mm 5 mps 717 mmHg 69%
    09:00 +32°C° 0 mm 5 mps 718 mmHg 61%
    10:00 +34°C° 0 mm 5 mps 718 mmHg 53%
    11:00 +35°C° 0 mm 4 mps 717 mmHg 48%
    12:00 +37°C° 0 mm 4 mps 717 mmHg 42%
    13:00 +38°C° 0 mm 3 mps 716 mmHg 37%
    14:00 +39°C° 0 mm 2 mps 716 mmHg 34%
    15:00 +39°C° 0 mm 2 mps 715 mmHg 32%
    16:00 +40°C° 0 mm 1 mps 715 mmHg 29%
    17:00 +38°C° 0 mm 2 mps 715 mmHg 33%
    18:00 +37°C° 0 mm 3 mps 715 mmHg 36%
    19:00 +36°C° 0 mm 4 mps 715 mmHg 40%
    20:00 +34°C° 0.2 mm 4 mps 716 mmHg 47%
    21:00 +33°C° 0.2 mm 5 mps 716 mmHg 53%
    22:00 +32°C° 0.2 mm 6 mps 716 mmHg 60%
    23:00 +30°C° 0.1 mm 6 mps 716 mmHg 63%

    28 September, Friday

    Time Temperature Precipitation Wind Pressure Humidity
    00:00 +29°C° 0.1 mm 5 mps 716 mmHg 66%
    01:00 +28°C° 0.1 mm 5 mps 716 mmHg 69%
    02:00 +28°C° 0 mm 5 mps 715 mmHg 71%
    03:00 +28°C° 0 mm 5 mps 715 mmHg 72%
    04:00 +28°C° 0 mm 5 mps 715 mmHg 73%
    05:00 +27°C° 0 mm 4 mps 716 mmHg 75%
    06:00 +27°C° 0 mm 4 mps 716 mmHg 76%
    07:00 +27°C° 0 mm 3 mps 717 mmHg 77%
    08:00 +29°C° 0 mm 4 mps 717 mmHg 70%
    09:00 +30°C° 0 mm 4 mps 718 mmHg 64%
    10:00 +33°C° 0 mm 4 mps 718 mmHg 57%
    11:00 +34°C° 0 mm 4 mps 718 mmHg 53%
    12:00 +36°C° 0 mm 4 mps 717 mmHg 48%
    13:00 +37°C° 0 mm 4 mps 717 mmHg 43%
    14:00 +37°C° 0.1 mm 4 mps 716 mmHg 44%
    15:00 +37°C° 0.1 mm 4 mps 716 mmHg 44%
    16:00 +36°C° 0.1 mm 4 mps 715 mmHg 44%
    17:00 +35°C° 0.3 mm 4 mps 716 mmHg 50%
    18:00 +33°C° 0.3 mm 4 mps 716 mmHg 56%
    19:00 +32°C° 0.3 mm 4 mps 716 mmHg 62%
    20:00 +30°C° 0.7 mm 4 mps 716 mmHg 65%
    21:00 +29°C° 0.7 mm 4 mps 716 mmHg 69%
    22:00 +29°C° 0.7 mm 5 mps 717 mmHg 72%
    23:00 +28°C° 1 mm 4 mps 717 mmHg 74%

    29 September, Saturday

    Time Temperature Precipitation Wind Pressure Humidity
    00:00 +28°C° 1 mm 4 mps 717 mmHg 75%
    01:00 +27°C° 1 mm 4 mps 717 mmHg 77%
    02:00 +27°C° 0 mm 4 mps 716 mmHg 77%
    03:00 +27°C° 0 mm 3 mps 716 mmHg 77%
    04:00 +27°C° 0 mm 3 mps 716 mmHg 77%
    05:00 +27°C° 0 mm 3 mps 716 mmHg 77%
    06:00 +27°C° 0 mm 2 mps 717 mmHg 77%
    07:00 +27°C° 0 mm 2 mps 717 mmHg 76%
    08:00 +29°C° 0 mm 2 mps 718 mmHg 69%
    09:00 +30°C° 0 mm 2 mps 718 mmHg 62%
    10:00 +32°C° 0 mm 2 mps 719 mmHg 54%
    11:00 +34°C° 0 mm 2 mps 718 mmHg 49%
    12:00 +36°C° 0 mm 2 mps 717 mmHg 44%
    13:00 +36°C° 0 mm 1 mps 716 mmHg 39%
    14:00 +36°C° 0 mm 1 mps 716 mmHg 38%
    15:00 +37°C° 0 mm 1 mps 715 mmHg 36%
    16:00 +35°C° 0 mm 0 mps 715 mmHg 35%
    17:00 +36°C° 0 mm 1 mps 715 mmHg 38%
    18:00 +35°C° 0 mm 1 mps 716 mmHg 41%
    19:00 +34°C° 0 mm 1 mps 716 mmHg 44%
    20:00 +34°C° 0.1 mm 2 mps 716 mmHg 46%
    21:00 +34°C° 0.1 mm 3 mps 716 mmHg 48%
    22:00 +33°C° 0.1 mm 4 mps 716 mmHg 50%
    23:00 +32°C° 0.1 mm 4 mps 716 mmHg 54%

    30 September, Sunday

    Time Temperature Precipitation Wind Pressure Humidity
    00:00 +30°C° 0.1 mm 4 mps 716 mmHg 58%
    01:00 +30°C° 0.1 mm 4 mps 716 mmHg 62%
    02:00 +29°C° 0.2 mm 4 mps 715 mmHg 64%
    03:00 +29°C° 0.2 mm 3 mps 715 mmHg 67%
    04:00 +28°C° 0.2 mm 3 mps 715 mmHg 69%
    05:00 +28°C° 0 mm 3 mps 716 mmHg 69%
    06:00 +28°C° 0 mm 3 mps 716 mmHg 69%
    07:00 +28°C° 0 mm 3 mps 717 mmHg 69%
    08:00 +30°C° 0 mm 3 mps 717 mmHg 62%
    09:00 +33°C° 0 mm 3 mps 717 mmHg 55%
    10:00 +35°C° 0 mm 4 mps 718 mmHg 48%
    11:00 +37°C° 0 mm 3 mps 717 mmHg 43%
    12:00 +38°C° 0 mm 2 mps 717 mmHg 39%
    13:00 +39°C° 0 mm 2 mps 716 mmHg 34%
    14:00 +39°C° 0 mm 2 mps 716 mmHg 33%
    15:00 +39°C° 0 mm 2 mps 715 mmHg 33%
    16:00 +39°C° 0 mm 2 mps 715 mmHg 32%
    17:00 +37°C° 0 mm 3 mps 715 mmHg 39%
    18:00 +35°C° 0 mm 4 mps 715 mmHg 46%
    19:00 +33°C° 0 mm 4 mps 715 mmHg 53%
    20:00 +32°C° 0 mm 5 mps 716 mmHg 58%
    21:00 +30°C° 0 mm 5 mps 716 mmHg 64%
    22:00 +29°C° 0 mm 6 mps 716 mmHg 69%
    23:00 +29°C° 0 mm 5 mps 716 mmHg 69%
    Show more